QPF
0.01 0.01 0.01 0.01 0.01 0.01 0.02 0.03 0.01 0.01 0.01 0.02 0.02 0.02 0.03 0.03 0.03 0.02 0.01 0.01 0.01 0.01 0.01 0.01 0.01 0.00 0.00 0.00 0.00 0.00 0.00 0.00 0.00 0.00 0.00 0.00 0.00 0.00 0.00 0.00 0.00 0.00 0.00 0.00
0.02 0.01 0.00 0.00 0.01 0.01 0.01 0.02 0.01 0.01 0.01 0.02 0.03 0.02 0.02 0.02 0.02 0.01 0.01 0.00 0.01 0.01 0.01 0.01 0.01 0.01 0.00 0.00 0.00 0.00 0.00 0.00 0.00 0.00 0.00 0.00 0.00 0.00 0.00 0.00 0.00 0.00 0.00 0.00
0.02 0.01 0.01 0.01 0.01 0.01 0.01 0.01 0.01 0.01 0.02 0.02 0.03 0.02 0.02 0.02 0.02 0.01 0.01 0.00 0.00 0.00 0.01 0.01 0.01 0.00 0.00 0.00 0.00 0.01 0.00 0.00 0.00 0.00 0.00 0.00 0.00 0.00 0.00 0.00 0.00 0.00 0.00 0.00
0.01 0.01 0.01 0.01 0.01 0.02 0.02 0.01 0.01 0.01 0.02 0.03 0.02 0.02 0.02 0.01 0.01 0.01 0.00 0.00 0.00 0.00 0.00 0.01 0.00 0.00 0.00 0.00 0.00 0.00 0.00 0.00 0.00 0.00 0.00 0.00 0.00 0.00 0.00 0.00 0.00 0.00 0.00 0.00
0.01 0.00 0.00 0.01 0.01 0.01 0.01 0.01 0.02 0.02 0.03 0.02 0.02 0.01 0.01 0.01 0.01 0.00 0.00 0.00 0.00 0.00 0.00 0.00 0.00 0.00 0.00 0.00 0.00 0.00 0.00 0.00 0.00 0.00 0.00 0.00 0.00 0.00 0.00 0.00 0.00 0.00 0.00 0.00
0.01 0.00 0.00 0.00 0.01 0.01 0.01 0.01 0.02 0.03 0.03 0.02 0.01 0.02 0.01 0.00 0.00 0.00 0.00 0.00 0.00 0.00 0.00 0.00 0.00 0.00 0.00 0.00 0.00 0.00 0.00 0.00 0.00 0.00 0.00 0.00 0.00 0.00 0.00 0.00 0.00 0.00 0.00 0.00
0.02 0.01 0.00 0.00 0.01 0.01 0.01 0.01 0.03 0.04 0.03 0.02 0.02 0.02 0.01 0.00 0.00 0.00 0.00 0.00 0.00 0.00 0.00 0.00 0.00 0.00 0.00 0.00 0.00 0.00 0.00 0.00 0.00 0.00 0.00 0.00 0.00 0.00 0.00 0.00 0.00 0.00 0.00 0.00
0.03 0.02 0.00 0.00 0.01 0.02 0.01 0.02 0.04 0.05 0.04 0.03 0.03 0.03 0.01 0.00 0.00 0.00 0.00 0.00 0.00 0.00 0.00 0.00 0.00 0.00 0.00 0.00 0.00 0.00 0.00 0.00 0.01 0.01 0.00 0.00 0.00 0.00 0.00 0.00 0.00 0.00 0.00 0.00
0.02 0.02 0.00 0.00 0.01 0.02 0.03 0.02 0.02 0.03 0.04 0.04 0.03 0.01 0.00 0.00 0.00 0.01 0.01 0.01 0.00 0.00 0.00 0.00 0.00 0.00 0.00 0.00 0.00 0.00 0.00 0.00 0.00 0.01 0.01 0.01 0.01 0.01 0.01 0.01 0.00 0.00 0.01 0.01
0.01 0.01 0.01 0.01 0.01 0.02 0.02 0.02 0.02 0.03 0.05 0.06 0.05 0.02 0.01 0.01 0.00 0.01 0.01 0.02 0.01 0.00 0.00 0.00 0.00 0.00 0.00 0.01 0.00 0.00 0.00 0.00 0.00 0.01 0.01 0.01 0.01 0.01 0.01 0.01 0.01 0.01 0.01 0.01
0.01 0.01 0.01 0.01 0.01 0.01 0.01 0.01 0.01 0.02 0.03 0.06 0.08 0.03 0.01 0.00 0.00 0.00 0.00 0.01 0.01 0.00 0.00 0.00 0.00 0.00 0.00 0.00 0.01 0.01 0.01 0.01 0.01 0.01 0.01 0.01 0.01 0.01 0.01 0.01 0.01 0.00 0.00 0.00
0.01 0.01 0.01 0.02 0.01 0.01 0.01 0.01 0.01 0.02 0.03 0.03 0.05 0.04 0.01 0.01 0.00 0.00 0.00 0.00 0.00 0.00 0.00 0.00 0.00 0.00 0.00 0.00 0.01 0.01 0.01 0.01 0.01 0.01 0.01 0.00 0.00 0.00 0.00 0.00 0.00 0.00 0.00 0.00
0.00 0.01 0.01 0.02 0.02 0.01 0.00 0.00 0.00 0.01 0.02 0.02 0.04 0.05 0.01 0.00 0.00 0.00 0.00 0.00 0.00 0.00 0.00 0.00 0.00 0.00 0.00 0.00 0.00 0.00 0.00 0.00 0.00 0.00 0.00 0.00 0.00 0.00 0.00 0.00 0.00 0.00 0.00 0.00
0.00 0.00 0.00 0.01 0.01 0.00 0.00 0.00 0.00 0.01 0.02 0.02 0.02 0.02 0.00 0.00 0.00 0.00 0.01 0.01 0.00 0.00 0.00 0.00 0.00 0.00 0.00 0.00 0.00 0.00 0.00 0.00 0.00 0.00 0.00 0.00 0.00 0.00 0.00 0.00 0.00 0.00 0.00 0.00
0.01 0.00 0.00 0.00 0.00 0.00 0.00 0.00 0.00 0.01 0.01 0.01 0.01 0.01 0.01 0.01 0.01 0.01 0.01 0.01 0.00 0.00 0.00 0.00 0.00 0.00 0.00 0.00 0.00 0.00 0.00 0.01 0.00 0.00 0.00 0.00 0.00 0.00 0.00 0.00 0.00 0.00 0.00 0.00
0.01 0.01 0.01 0.00 0.00 0.00 0.00 0.00 0.00 0.00 0.00 0.00 0.01 0.00 0.00 0.01 0.01 0.01 0.01 0.00 0.00 0.00 0.00 0.00 0.00 0.00 0.00 0.00 0.00 0.00 0.00 0.01 0.01 0.00 0.00 0.00 0.00 0.00 0.00 0.00 0.00 0.00 0.00 0.00
0.01 0.01 0.01 0.01 0.00 0.00 0.00 0.00 0.00 0.00 0.00 0.00 0.01 0.00 0.00 0.01 0.01 0.01 0.01 0.01 0.00 0.00 0.01 0.00 0.00 0.00 0.00 0.00 0.00 0.00 0.00 0.00 0.00 0.00 0.00 0.00 0.00 0.00 0.00 0.00 0.00 0.00 0.00 0.00
0.01 0.02 0.02 0.01 0.01 0.01 0.00 0.00 0.00 0.00 0.00 0.00 0.00 0.00 0.00 0.00 0.00 0.00 0.00 0.01 0.00 0.00 0.00 0.00 0.00 0.00 0.00 0.00 0.00 0.00 0.00 0.00 0.00 0.00 0.00 0.00 0.00 0.00 0.00 0.00 0.00 0.00 0.00 0.00
0.00 0.01 0.02 0.02 0.01 0.00 0.00 0.00 0.00 0.00 0.00 0.00 0.00 0.00 0.00 0.00 0.00 0.00 0.00 0.00 0.00 0.00 0.00 0.00 0.00 0.00 0.00 0.00 0.00 0.01 0.01 0.01 0.00 0.00 0.00 0.00 0.00 0.01 0.01 0.01 0.01 0.01 0.00 0.00
0.01 0.01 0.01 0.01 0.01 0.01 0.00 0.00 0.00 0.00 0.00 0.00 0.00 0.00 0.00 0.00 0.00 0.00 0.00 0.00 0.00 0.00 0.00 0.00 0.00 0.00 0.00 0.00 0.00 0.00 0.01 0.01 0.02 0.02 0.02 0.02 0.02 0.01 0.01 0.01 0.01 0.00 0.00 0.00
0.01 0.02 0.01 0.01 0.01 0.00 0.00 0.00 0.00 0.00 0.00 0.00 0.00 0.00 0.00 0.00 0.00 0.00 0.00 0.00 0.00 0.00 0.00 0.00 0.00 0.00 0.00 0.00 0.00 0.00 0.01 0.01 0.01 0.01 0.02 0.02 0.02 0.02 0.01 0.01 0.00 0.00 0.00 0.00
0.02 0.02 0.02 0.01 0.01 0.00 0.00 0.01 0.00 0.00 0.00 0.00 0.00 0.00 0.00 0.00 0.00 0.00 0.00 0.00 0.00 0.00 0.00 0.00 0.00 0.00 0.00 0.00 0.00 0.01 0.01 0.01 0.01 0.01 0.01 0.01 0.01 0.01 0.01 0.00 0.00 0.00 0.00 0.00
0.01 0.02 0.02 0.01 0.01 0.01 0.01 0.01 0.00 0.00 0.00 0.00 0.00 0.00 0.00 0.00 0.00 0.00 0.00 0.00 0.00 0.00 0.00 0.00 0.00 0.00 0.00 0.00 0.00 0.01 0.01 0.01 0.01 0.01 0.01 0.01 0.01 0.03 0.02 0.01 0.00 0.01 0.00 0.00
0.01 0.01 0.02 0.01 0.01 0.02 0.01 0.01 0.00 0.00 0.00 0.00 0.00 0.00 0.00 0.00 0.00 0.00 0.00 0.00 0.00 0.00 0.00 0.00 0.00 0.00 0.00 0.00 0.00 0.01 0.01 0.01 0.01 0.01 0.01 0.01 0.01 0.03 0.01 0.01 0.00 0.00 0.00 0.00
0.01 0.01 0.02 0.02 0.02 0.02 0.02 0.01 0.01 0.00 0.00 0.00 0.00 0.00 0.00 0.00 0.00 0.00 0.00 0.00 0.00 0.00 0.00 0.00 0.00 0.00 0.00 0.00 0.00 0.01 0.01 0.01 0.01 0.01 0.01 0.02 0.02 0.02 0.01 0.00 0.00 0.00 0.00 0.00
0.01 0.01 0.02 0.02 0.02 0.02 0.02 0.02 0.01 0.00 0.00 0.00 0.00 0.00 0.00 0.00 0.00 0.00 0.00 0.00 0.00 0.00 0.00 0.00 0.00 0.00 0.00 0.00 0.00 0.00 0.01 0.01 0.01 0.02 0.02 0.02 0.02 0.01 0.01 0.01 0.00 0.00 0.00 0.00
MSLP
1015.44 1016.38 1017.23 1017.97 1018.59 1019.07 1019.45 1019.73 1019.94 1020.07 1020.14 1020.15 1020.10 1019.99 1019.84 1019.67 1019.51 1019.36 1019.25 1019.18 1019.13 1019.11 1019.08 1019.04 1018.98 1018.90 1018.80 1018.72 1018.67 1018.67 1018.73 1018.85 1019.02 1019.23 1019.43 1019.61 1019.73 1019.78 1019.75 1019.65 1019.50 1019.31 1019.13 1018.97
1016.16 1016.99 1017.71 1018.32 1018.82 1019.24 1019.61 1019.93 1020.20 1020.43 1020.58 1020.65 1020.62 1020.49 1020.28 1020.02 1019.75 1019.52 1019.34 1019.24 1019.20 1019.21 1019.24 1019.25 1019.23 1019.16 1019.06 1018.95 1018.85 1018.80 1018.83 1018.95 1019.14 1019.38 1019.64 1019.88 1020.07 1020.16 1020.16 1020.07 1019.91 1019.71 1019.51 1019.34
1016.77 1017.48 1018.09 1018.59 1019.01 1019.40 1019.77 1020.14 1020.50 1020.80 1021.02 1021.13 1021.09 1020.90 1020.60 1020.23 1019.85 1019.52 1019.28 1019.15 1019.12 1019.18 1019.27 1019.35 1019.39 1019.37 1019.28 1019.16 1019.04 1018.96 1018.96 1019.06 1019.25 1019.52 1019.81 1020.10 1020.32 1020.45 1020.47 1020.40 1020.24 1020.05 1019.85 1019.69
1017.22 1017.84 1018.35 1018.78 1019.17 1019.56 1019.97 1020.40 1020.83 1021.21 1021.48 1021.58 1021.50 1021.24 1020.82 1020.32 1019.81 1019.37 1019.05 1018.89 1018.87 1018.98 1019.15 1019.32 1019.44 1019.48 1019.44 1019.33 1019.21 1019.11 1019.09 1019.16 1019.35 1019.61 1019.92 1020.22 1020.47 1020.62 1020.67 1020.62 1020.49 1020.31 1020.14 1019.99
1017.50 1018.05 1018.50 1018.89 1019.27 1019.69 1020.17 1020.68 1021.18 1021.62 1021.91 1021.99 1021.85 1021.48 1020.93 1020.28 1019.63 1019.07 1018.68 1018.48 1018.48 1018.64 1018.89 1019.15 1019.36 1019.48 1019.49 1019.42 1019.31 1019.21 1019.17 1019.23 1019.39 1019.64 1019.94 1020.25 1020.51 1020.68 1020.76 1020.73 1020.63 1020.50 1020.36 1020.25
1017.63 1018.11 1018.52 1018.90 1019.31 1019.78 1020.33 1020.92 1021.49 1021.96 1022.26 1022.30 1022.08 1021.60 1020.91 1020.12 1019.34 1018.68 1018.21 1017.98 1017.99 1018.19 1018.50 1018.85 1019.15 1019.35 1019.43 1019.41 1019.33 1019.24 1019.19 1019.24 1019.38 1019.61 1019.89 1020.19 1020.45 1020.64 1020.74 1020.76 1020.70 1020.62 1020.53 1020.47
1017.61 1018.03 1018.41 1018.80 1019.25 1019.78 1020.39 1021.05 1021.67 1022.17 1022.45 1022.45 1022.15 1021.57 1020.78 1019.87 1018.99 1018.24 1017.72 1017.46 1017.47 1017.70 1018.06 1018.48 1018.85 1019.12 1019.27 1019.30 1019.25 1019.19 1019.15 1019.18 1019.31 1019.52 1019.79 1020.08 1020.34 1020.55 1020.68 1020.73 1020.73 1020.70 1020.68 1020.67
1017.47 1017.84 1018.19 1018.59 1019.07 1019.64 1020.31 1021.01 1021.66 1022.16 1022.43 1022.40 1022.04 1021.40 1020.53 1019.57 1018.63 1017.83 1017.28 1017.01 1017.01 1017.25 1017.64 1018.09 1018.50 1018.83 1019.03 1019.11 1019.11 1019.07 1019.06 1019.10 1019.23 1019.44 1019.70 1019.98 1020.25 1020.47 1020.62 1020.72 1020.77 1020.80 1020.83 1020.88
1017.21 1017.54 1017.87 1018.27 1018.77 1019.37 1020.06 1020.77 1021.42 1021.92 1022.17 1022.12 1021.74 1021.08 1020.21 1019.24 1018.30 1017.52 1016.97 1016.69 1016.70 1016.93 1017.31 1017.76 1018.19 1018.53 1018.76 1018.89 1018.93 1018.94 1018.96 1019.04 1019.19 1019.40 1019.66 1019.95 1020.22 1020.46 1020.64 1020.77 1020.87 1020.95 1021.02 1021.12
1016.87 1017.16 1017.48 1017.87 1018.37 1018.97 1019.65 1020.34 1020.97 1021.44 1021.68 1021.63 1021.27 1020.65 1019.84 1018.94 1018.08 1017.35 1016.84 1016.59 1016.58 1016.79 1017.15 1017.56 1017.96 1018.30 1018.54 1018.70 1018.79 1018.85 1018.93 1019.05 1019.24 1019.48 1019.76 1020.06 1020.33 1020.58 1020.78 1020.94 1021.06 1021.18 1021.29 1021.42
1016.47 1016.74 1017.06 1017.44 1017.92 1018.49 1019.13 1019.77 1020.35 1020.79 1021.01 1020.98 1020.69 1020.16 1019.48 1018.71 1017.98 1017.36 1016.93 1016.72 1016.71 1016.89 1017.18 1017.54 1017.89 1018.19 1018.42 1018.60 1018.74 1018.86 1019.01 1019.20 1019.44 1019.73 1020.03 1020.34 1020.63 1020.88 1021.08 1021.25 1021.39 1021.52 1021.66 1021.80
1016.05 1016.35 1016.67 1017.05 1017.50 1018.02 1018.58 1019.15 1019.66 1020.04 1020.25 1020.25 1020.05 1019.66 1019.14 1018.56 1018.00 1017.54 1017.21 1017.05 1017.06 1017.19 1017.42 1017.70 1017.98 1018.23 1018.45 1018.64 1018.82 1019.02 1019.24 1019.51 1019.82 1020.15 1020.49 1020.82 1021.10 1021.35 1021.55 1021.71 1021.85 1021.99 1022.13 1022.28
1015.69 1016.02 1016.37 1016.75 1017.16 1017.61 1018.09 1018.55 1018.96 1019.28 1019.47 1019.52 1019.41 1019.17 1018.84 1018.47 1018.12 1017.83 1017.63 1017.55 1017.56 1017.67 1017.83 1018.02 1018.23 1018.43 1018.63 1018.83 1019.06 1019.33 1019.63 1019.98 1020.36 1020.74 1021.11 1021.45 1021.74 1021.97 1022.15 1022.30 1022.43 1022.56 1022.70 1022.84
1015.43 1015.83 1016.22 1016.59 1016.96 1017.33 1017.69 1018.04 1018.34 1018.58 1018.74 1018.81 1018.80 1018.71 1018.58 1018.43 1018.28 1018.17 1018.11 1018.10 1018.15 1018.23 1018.34 1018.46 1018.60 1018.76 1018.94 1019.17 1019.45 1019.78 1020.16 1020.58 1021.02 1021.45 1021.85 1022.19 1022.47 1022.69 1022.86 1022.99 1023.10 1023.22 1023.35 1023.49
1015.33 1015.80 1016.22 1016.59 1016.91 1017.19 1017.43 1017.63 1017.81 1017.95 1018.07 1018.16 1018.23 1018.28 1018.32 1018.37 1018.42 1018.49 1018.56 1018.64 1018.72 1018.80 1018.87 1018.95 1019.05 1019.18 1019.37 1019.61 1019.94 1020.33 1020.78 1021.27 1021.76 1022.22 1022.63 1022.98 1023.25 1023.45 1023.60 1023.72 1023.82 1023.94 1024.06 1024.21
1015.41 1015.94 1016.38 1016.72 1016.97 1017.14 1017.25 1017.32 1017.36 1017.41 1017.47 1017.56 1017.68 1017.84 1018.03 1018.25 1018.48 1018.70 1018.90 1019.07 1019.21 1019.30 1019.37 1019.44 1019.52 1019.65 1019.84 1020.12 1020.49 1020.93 1021.44 1021.97 1022.50 1022.98 1023.40 1023.75 1024.01 1024.20 1024.34 1024.46 1024.56 1024.68 1024.81 1024.95
1015.64 1016.18 1016.61 1016.91 1017.07 1017.13 1017.11 1017.04 1016.95 1016.90 1016.90 1016.97 1017.13 1017.37 1017.68 1018.04 1018.42 1018.78 1019.10 1019.36 1019.56 1019.69 1019.79 1019.87 1019.97 1020.11 1020.34 1020.65 1021.06 1021.55 1022.09 1022.65 1023.19 1023.69 1024.11 1024.45 1024.71 1024.90 1025.04 1025.16 1025.28 1025.41 1025.55 1025.71
1015.93 1016.45 1016.83 1017.04 1017.11 1017.05 1016.90 1016.70 1016.51 1016.37 1016.31 1016.37 1016.56 1016.86 1017.27 1017.73 1018.23 1018.70 1019.13 1019.48 1019.76 1019.96 1020.10 1020.23 1020.37 1020.56 1020.82 1021.17 1021.61 1022.13 1022.69 1023.26 1023.81 1024.30 1024.72 1025.06 1025.32 1025.52 1025.68 1025.82 1025.95 1026.10 1026.26 1026.43
1016.18 1016.62 1016.90 1017.01 1016.97 1016.80 1016.54 1016.24 1015.97 1015.77 1015.68 1015.74 1015.95 1016.31 1016.78 1017.34 1017.92 1018.50 1019.02 1019.47 1019.83 1020.10 1020.32 1020.52 1020.72 1020.96 1021.27 1021.66 1022.13 1022.66 1023.23 1023.80 1024.34 1024.82 1025.24 1025.57 1025.84 1026.06 1026.24 1026.41 1026.57 1026.74 1026.92 1027.09
1016.24 1016.56 1016.72 1016.72 1016.57 1016.30 1015.96 1015.61 1015.29 1015.07 1014.99 1015.07 1015.32 1015.72 1016.26 1016.89 1017.55 1018.21 1018.82 1019.35 1019.80 1020.16 1020.47 1020.75 1021.02 1021.33 1021.69 1022.12 1022.61 1023.15 1023.71 1024.27 1024.79 1025.26 1025.67 1026.01 1026.29 1026.52 1026.73 1026.92 1027.11 1027.30 1027.48 1027.65
1016.02 1016.19 1016.22 1016.10 1015.86 1015.52 1015.15 1014.78 1014.47 1014.28 1014.24 1014.36 1014.66 1015.13 1015.73 1016.41 1017.15 1017.87 1018.56 1019.17 1019.71 1020.17 1020.57 1020.93 1021.29 1021.67 1022.08 1022.55 1023.05 1023.59 1024.14 1024.67 1025.18 1025.63 1026.03 1026.37 1026.67 1026.92 1027.15 1027.36 1027.56 1027.76 1027.93 1028.07
1015.46 1015.49 1015.38 1015.16 1014.86 1014.50 1014.13 1013.79 1013.54 1013.42 1013.45 1013.65 1014.03 1014.55 1015.21 1015.95 1016.74 1017.53 1018.28 1018.97 1019.59 1020.14 1020.63 1021.09 1021.53 1021.97 1022.44 1022.93 1023.45 1023.98 1024.52 1025.03 1025.51 1025.95 1026.34 1026.69 1026.99 1027.26 1027.50 1027.72 1027.92 1028.09 1028.24 1028.35
1014.58 1014.47 1014.25 1013.97 1013.63 1013.29 1012.97 1012.71 1012.56 1012.54 1012.67 1012.97 1013.42 1014.02 1014.73 1015.52 1016.35 1017.19 1017.99 1018.75 1019.44 1020.08 1020.66 1021.20 1021.72 1022.23 1022.74 1023.26 1023.79 1024.32 1024.84 1025.34 1025.80 1026.23 1026.61 1026.95 1027.26 1027.52 1027.76 1027.98 1028.16 1028.31 1028.42 1028.48
1013.45 1013.22 1012.94 1012.62 1012.30 1012.00 1011.77 1011.62 1011.59 1011.70 1011.95 1012.34 1012.88 1013.54 1014.29 1015.12 1015.98 1016.85 1017.69 1018.51 1019.27 1019.98 1020.64 1021.26 1021.85 1022.42 1022.98 1023.53 1024.07 1024.60 1025.10 1025.58 1026.03 1026.45 1026.82 1027.16 1027.46 1027.72 1027.95 1028.14 1028.29 1028.40 1028.46 1028.48
1012.20 1011.89 1011.57 1011.25 1010.98 1010.76 1010.64 1010.62 1010.72 1010.95 1011.31 1011.80 1012.41 1013.11 1013.90 1014.74 1015.62 1016.51 1017.38 1018.23 1019.05 1019.82 1020.56 1021.25 1021.91 1022.53 1023.13 1023.71 1024.26 1024.79 1025.29 1025.76 1026.19 1026.60 1026.96 1027.29 1027.59 1027.84 1028.04 1028.21 1028.32 1028.38 1028.40 1028.36
1010.95 1010.60 1010.27 1009.99 1009.78 1009.67 1009.66 1009.77 1010.00 1010.34 1010.80 1011.36 1012.02 1012.75 1013.54 1014.39 1015.27 1016.16 1017.05 1017.93 1018.79 1019.62 1020.41 1021.17 1021.88 1022.56 1023.19 1023.80 1024.36 1024.89 1025.38 1025.84 1026.27 1026.67 1027.03 1027.35 1027.64 1027.87 1028.06 1028.20 1028.27 1028.30 1028.27 1028.19
Thickness
5730 5714 5704 5709 5715 5713 5709 5700 5696 5702 5714 5709 5702 5702 5706 5710 5710 5709 5708 5710 5712 5716 5722 5726 5728 5728 5728 5728 5728 5727 5726 5727 5727 5725 5722 5720 5719 5721 5721 5722 5722 5721 5720 5719
5714 5708 5721 5726 5723 5716 5708 5698 5695 5702 5712 5709 5701 5701 5707 5709 5710 5712 5711 5710 5712 5715 5718 5721 5724 5725 5725 5725 5725 5725 5725 5725 5725 5724 5722 5721 5719 5718 5719 5719 5719 5719 5718 5718
5710 5718 5730 5724 5716 5710 5704 5699 5698 5698 5704 5707 5699 5692 5699 5708 5711 5712 5714 5714 5715 5716 5716 5718 5720 5721 5722 5722 5723 5724 5723 5724 5724 5724 5722 5720 5717 5716 5715 5715 5715 5716 5716 5715
5716 5727 5726 5718 5713 5711 5698 5710 5709 5703 5692 5685 5692 5675 5692 5701 5704 5709 5711 5713 5715 5718 5719 5719 5719 5719 5721 5722 5724 5723 5723 5722 5722 5722 5720 5717 5713 5710 5711 5712 5713 5714 5714 5713
5712 5722 5719 5713 5716 5717 5708 5716 5709 5703 5693 5686 5688 5678 5687 5700 5699 5707 5713 5716 5717 5719 5720 5720 5720 5721 5722 5723 5723 5722 5722 5721 5721 5720 5719 5716 5713 5711 5711 5711 5711 5711 5711 5710
5719 5729 5726 5722 5725 5725 5719 5709 5702 5695 5686 5674 5687 5680 5684 5696 5707 5713 5717 5719 5720 5720 5720 5720 5721 5721 5720 5721 5721 5721 5719 5718 5719 5719 5717 5715 5713 5711 5709 5708 5708 5708 5708 5708
5708 5717 5726 5728 5715 5716 5711 5689 5672 5670 5666 5672 5693 5687 5693 5717 5725 5725 5723 5722 5722 5722 5721 5719 5718 5718 5718 5718 5718 5718 5717 5716 5717 5717 5715 5715 5713 5711 5709 5707 5706 5705 5704 5704
5692 5693 5716 5723 5716 5707 5705 5693 5673 5665 5664 5674 5691 5687 5707 5731 5735 5735 5731 5728 5725 5723 5722 5721 5720 5720 5719 5718 5718 5717 5716 5715 5715 5715 5714 5713 5712 5710 5709 5708 5706 5705 5704 5704
5693 5695 5721 5728 5729 5719 5703 5695 5698 5683 5680 5673 5681 5698 5716 5731 5730 5730 5728 5726 5724 5724 5723 5722 5722 5721 5720 5719 5718 5717 5716 5714 5714 5713 5712 5711 5711 5709 5708 5707 5706 5705 5704 5703
5711 5699 5713 5724 5726 5722 5716 5707 5690 5682 5670 5665 5677 5688 5695 5714 5720 5725 5725 5724 5726 5725 5724 5723 5722 5721 5720 5719 5718 5717 5716 5714 5712 5711 5711 5710 5709 5708 5707 5706 5704 5703 5703 5702
5717 5700 5702 5710 5707 5705 5708 5705 5695 5683 5680 5667 5664 5681 5718 5720 5725 5726 5728 5729 5729 5727 5726 5725 5723 5722 5720 5719 5717 5715 5714 5712 5710 5709 5709 5708 5706 5706 5705 5704 5703 5702 5701 5700
5716 5697 5689 5701 5718 5724 5717 5709 5697 5681 5679 5677 5670 5684 5731 5730 5731 5732 5731 5732 5732 5731 5729 5727 5724 5721 5718 5717 5715 5714 5713 5711 5710 5708 5707 5705 5704 5703 5702 5701 5700 5700 5699 5698
5716 5696 5679 5683 5696 5711 5712 5714 5709 5696 5684 5676 5671 5689 5730 5730 5731 5733 5733 5733 5732 5730 5728 5726 5723 5720 5718 5717 5715 5714 5712 5711 5709 5707 5704 5702 5701 5700 5699 5698 5698 5697 5696 5695
5721 5697 5687 5681 5690 5703 5706 5712 5713 5698 5681 5679 5686 5698 5718 5725 5727 5731 5732 5733 5731 5730 5728 5724 5722 5720 5719 5718 5716 5714 5712 5710 5708 5704 5702 5700 5699 5698 5697 5696 5695 5694 5693 5691
5716 5698 5701 5704 5713 5715 5713 5714 5713 5705 5699 5691 5699 5704 5717 5727 5730 5732 5732 5731 5729 5727 5726 5725 5722 5720 5719 5717 5715 5713 5711 5709 5707 5703 5700 5699 5698 5697 5695 5693 5692 5691 5690 5688
5709 5700 5701 5701 5712 5713 5711 5715 5715 5713 5711 5707 5709 5712 5730 5733 5732 5730 5730 5729 5727 5726 5726 5726 5724 5722 5719 5718 5716 5714 5711 5709 5706 5702 5700 5698 5696 5694 5692 5690 5689 5687 5685 5684
5701 5697 5688 5684 5699 5703 5696 5713 5714 5714 5718 5715 5707 5718 5730 5727 5728 5729 5729 5729 5728 5728 5728 5726 5725 5724 5722 5721 5718 5714 5712 5709 5705 5702 5699 5696 5693 5691 5689 5688 5685 5683 5681 5679
5699 5692 5681 5678 5685 5675 5703 5728 5728 5722 5723 5725 5725 5728 5731 5733 5734 5735 5734 5731 5730 5730 5729 5729 5727 5725 5724 5722 5719 5716 5711 5707 5704 5701 5698 5695 5692 5689 5687 5684 5681 5679 5677 5675
5705 5693 5678 5671 5671 5681 5707 5725 5727 5719 5716 5729 5728 5730 5732 5733 5729 5727 5735 5736 5735 5734 5733 5732 5731 5728 5725 5722 5719 5714 5708 5705 5701 5698 5696 5694 5690 5687 5683 5680 5678 5676 5674 5671
5699 5694 5679 5670 5669 5669 5700 5729 5736 5724 5707 5730 5732 5730 5729 5726 5710 5718 5734 5736 5735 5735 5733 5732 5730 5727 5723 5721 5717 5711 5706 5702 5700 5698 5696 5693 5689 5685 5682 5679 5676 5673 5671 5668
5682 5679 5673 5668 5668 5680 5713 5729 5728 5699 5706 5732 5734 5733 5729 5724 5726 5732 5736 5735 5734 5733 5732 5731 5728 5724 5722 5720 5715 5709 5704 5702 5701 5698 5694 5690 5687 5683 5680 5676 5672 5669 5666 5663
5676 5671 5669 5666 5664 5679 5722 5723 5714 5717 5731 5734 5735 5736 5733 5732 5733 5733 5733 5731 5730 5729 5728 5727 5723 5720 5720 5718 5713 5707 5703 5703 5699 5695 5690 5687 5684 5681 5677 5672 5668 5665 5661 5657
5680 5683 5680 5680 5687 5711 5723 5726 5732 5733 5731 5733 5733 5736 5734 5730 5729 5729 5728 5727 5726 5726 5724 5723 5720 5716 5714 5713 5711 5704 5702 5700 5696 5690 5686 5683 5679 5676 5672 5668 5663 5659 5656 5652
5683 5692 5686 5685 5698 5711 5720 5726 5731 5732 5733 5735 5736 5735 5734 5729 5727 5725 5724 5722 5721 5720 5719 5717 5714 5711 5708 5708 5707 5704 5701 5697 5692 5686 5681 5678 5674 5670 5666 5663 5660 5655 5651 5648
5681 5685 5681 5683 5697 5706 5713 5721 5726 5729 5731 5732 5732 5732 5731 5728 5724 5722 5720 5719 5717 5716 5714 5712 5709 5706 5704 5703 5701 5699 5696 5692 5686 5681 5676 5672 5669 5665 5660 5657 5654 5652 5650 5648
5678 5680 5677 5680 5695 5696 5704 5717 5723 5723 5724 5726 5727 5725 5726 5726 5722 5720 5717 5716 5714 5711 5709 5706 5703 5700 5698 5697 5694 5693 5691 5688 5682 5675 5671 5667 5663 5659 5655 5651 5647 5646 5645 5643